Location: Brede
(50.9167°N, 0.6000°E)
Time: 11:12:15
(UTC+00:00)

Vanguard 2 Rocket - Visible Passes

Search period start: 30 November 2020 00:00
Search period end: 10 December 2020 00:00
Orbit: 553 x 3326 km, 32.9° (Epoch: 29 November)

Date Brightness Start Highest point End Pass type
(mag) Time Alt. Az. Time Alt. Az. Time Alt. Az.
30 Nov 11.2 05:24:00 10° S 05:36:33 21° SE 05:48:55 10° ESE visible
01 Dec 11.2 04:27:00 10° SSE 04:36:01 15° SE 04:45:17 10° ESE visible
01 Dec 11.0 06:34:04 10° SSW 06:50:09 33° SSE 07:05:08 10° ESE visible
02 Dec 11.0 05:34:41 10° SSW 05:49:07 28° SSE 06:03:39 10° E visible
03 Dec 11.0 04:36:19 10° S 04:48:22 22° SE 05:01:12 10° E visible
03 Dec 10.9 06:46:08 10° SW 07:02:58 38° SSE 07:18:58 10° ESE visible
04 Dec 11.0 03:39:39 10° SSE 03:48:01 15° SE 03:57:03 10° ESE visible
04 Dec 10.8 05:46:19 10° SSW 06:01:45 33° SSE 06:17:43 10° E visible
05 Dec 10.8 04:47:18 10° SSW 05:00:49 28° SE 05:15:46 10° E visible
05 Dec 10.7 06:58:40 10° SW 07:15:51 41° SSE 07:32:32 10° ESE visible
06 Dec 10.7 03:49:16 10° S 04:00:16 21° SE 04:12:51 10° E visible
06 Dec 10.7 05:58:34 10° SW 06:14:29 38° SSE 06:31:26 10° ESE visible
07 Dec 10.8 02:53:05 10° SSE 03:00:10 14° SE 03:08:06 10° ESE visible
07 Dec 10.6 04:59:08 10° SSW 05:13:23 33° SSE 05:29:44 10° E visible
08 Dec 10.5 04:00:28 10° SSW 04:12:39 27° SE 04:27:20 10° E visible
08 Dec 10.5 06:11:16 10° SW 06:27:19 42° SSE 06:44:53 10° ESE visible
09 Dec 10.5 03:02:49 10° S 03:12:22 20° SE 03:23:57 10° E visible
09 Dec 10.5 05:11:34 10° SW 05:26:05 38° SSE 05:43:20 10° ESE visible
